Time,TemperatureF,DewpointF,PressureIn,WindDirection,WindDirectionDegrees,WindSpeedMPH,WindSpeedGustMPH,Humidity,HourlyPrecipIn,Conditions,Clouds,dailyrainin,SoftwareType,DateUTC
2013-01-18 00:00:00,30.1,25.0,30.65,NNE,33,0.0,0.0,81,0.00,,,0.00,Wunderground v.1.15,2013-01-18 06:00:00,
2013-01-18 00:05:00,30.1,25.0,30.65,NE,34,0.0,0.0,81,0.00,,,0.00,Wunderground v.1.15,2013-01-18 06:05:00,
2013-01-18 00:10:00,30.1,25.3,30.65,NNE,33,0.0,0.0,82,0.00,,,0.00,Wunderground v.1.15,2013-01-18 06:10:00,
2013-01-18 00:15:00,30.2,25.4,30.65,NE,34,0.0,0.0,82,0.00,,,0.00,Wunderground v.1.15,2013-01-18 06:15:00,
2013-01-18 00:20:00,30.2,25.1,30.65,North,-999,0.0,0.0,81,0.00,,,-99.99,WeatherLink 6.0.2,2013-01-18 06:20:00,
2013-01-18 00:25:00,30.1,25.0,30.65,NE,34,0.0,0.0,81,0.00,,,0.00,Wunderground v.1.15,2013-01-18 06:25:00,
2013-01-18 00:30:00,29.9,24.8,30.65,NNE,33,0.0,0.0,81,0.00,,,0.00,Wunderground v.1.15,2013-01-18 06:30:00,
2013-01-18 00:35:00,30.1,25.3,30.65,NNE,33,0.0,0.0,82,0.00,,,0.00,Wunderground v.1.15,2013-01-18 06:35:00,
2013-01-18 00:40:00,30.1,25.0,30.65,NE,34,0.0,0.0,81,0.00,,,0.00,Wunderground v.1.15,2013-01-18 06:40:00,
2013-01-18 00:48:00,30.1,25.0,30.65,North,-999,0.0,0.0,81,0.00,,,-99.99,WeatherLink 6.0.2,2013-01-18 06:48:00,
2013-01-18 00:50:00,29.2,24.4,30.65,North,-999,0.0,0.0,82,0.00,,,-99.99,WeatherLink 6.0.2,2013-01-18 06:50:00,
2013-01-18 00:54:00,29.3,24.5,30.65,NNE,33,0.0,0.0,82,0.00,,,0.00,Wunderground v.1.15,2013-01-18 06:54:00,
2013-01-18 01:00:00,29.4,24.6,30.65,NE,34,0.0,0.0,82,0.00,,,0.00,Wunderground v.1.15,2013-01-18 07:00:00,
2013-01-18 01:05:00,29.7,25.2,30.65,NNE,33,0.0,0.0,83,0.00,,,0.00,Wunderground v.1.15,2013-01-18 07:05:00,
2013-01-18 01:10:00,30.4,25.9,30.65,NE,36,0.0,0.0,83,0.00,,,0.00,Wunderground v.1.15,2013-01-18 07:10:00,
2013-01-18 01:15:00,30.9,26.1,30.65,NE,42,0.0,0.0,82,0.00,,,0.00,Wunderground v.1.15,2013-01-18 07:15:00,
2013-01-18 01:20:00,30.2,25.1,30.66,NE,44,0.0,0.0,81,0.00,,,0.00,Wunderground v.1.15,2013-01-18 07:20:00,
2013-01-18 01:25:00,30.8,26.2,30.66,NE,51,0.0,0.0,83,0.00,,,0.00,Wunderground v.1.15,2013-01-18 07:25:00,
2013-01-18 01:30:00,30.4,25.6,30.66,NE,52,0.0,0.0,82,0.00,,,0.00,Wunderground v.1.15,2013-01-18 07:30:00,
2013-01-18 01:35:00,30.5,25.7,30.66,North,-999,0.0,0.0,82,0.00,,,-99.99,WeatherLink 6.0.2,2013-01-18 07:35:00,
2013-01-18 01:39:00,30.4,25.6,30.66,NE,53,0.0,0.0,82,0.00,,,0.00,Wunderground v.1.15,2013-01-18 07:39:00,
2013-01-18 01:45:00,30.2,25.4,30.66,NE,52,0.0,0.0,82,0.00,,,0.00,Wunderground v.1.15,2013-01-18 07:45:00,
2013-01-18 01:50:00,29.8,25.0,30.66,NE,52,0.0,0.0,82,0.00,,,0.00,Wunderground v.1.15,2013-01-18 07:50:00,
2013-01-18 01:55:00,29.4,24.6,30.66,NE,53,0.0,0.0,82,0.00,,,0.00,Wunderground v.1.15,2013-01-18 07:55:00,
2013-01-18 02:00:00,29.6,25.4,30.66,NE,52,0.0,0.0,84,0.00,,,0.00,Wunderground v.1.15,2013-01-18 08:00:00,
2013-01-18 02:05:00,30.3,26.0,30.66,North,-999,0.0,0.0,84,0.00,,,-99.99,WeatherLink 6.0.2,2013-01-18 08:05:00,
2013-01-18 02:10:00,30.2,25.7,30.66,ENE,71,0.0,0.0,83,0.00,,,0.00,Wunderground v.1.15,2013-01-18 08:10:00,
2013-01-18 02:15:00,30.4,25.9,30.67,SSE,156,0.0,0.0,83,0.00,,,0.00,Wunderground v.1.15,2013-01-18 08:15:00,
2013-01-18 02:20:00,30.0,25.2,30.67,SSE,161,0.0,0.0,82,0.00,,,0.00,Wunderground v.1.15,2013-01-18 08:20:00,
2013-01-18 02:25:00,29.7,25.2,30.67,SSE,162,0.0,0.0,83,0.00,,,0.00,Wunderground v.1.15,2013-01-18 08:25:00,
2013-01-18 02:30:00,29.8,25.3,30.67,SSE,162,0.0,0.0,83,0.00,,,0.00,Wunderground v.1.15,2013-01-18 08:30:00,
2013-01-18 02:35:00,30.1,25.8,30.67,SSE,163,0.0,0.0,84,0.00,,,0.00,Wunderground v.1.15,2013-01-18 08:35:00,
2013-01-18 02:40:00,30.5,26.2,30.67,SSE,163,0.0,0.0,84,0.00,,,0.00,Wunderground v.1.15,2013-01-18 08:40:00,
2013-01-18 02:45:00,30.8,26.2,30.67,SSE,163,0.0,0.0,83,0.00,,,0.00,Wunderground v.1.15,2013-01-18 08:45:00,
2013-01-18 02:50:00,31.0,26.4,30.66,North,-999,0.0,0.0,83,0.00,,,-99.99,WeatherLink 6.0.2,2013-01-18 08:50:00,
2013-01-18 02:55:00,31.2,26.3,30.66,SSE,163,0.0,0.0,82,0.00,,,0.00,Wunderground v.1.15,2013-01-18 08:55:00,
2013-01-18 03:00:00,31.3,26.4,30.66,SSE,163,0.0,0.0,82,0.00,,,0.00,Wunderground v.1.15,2013-01-18 09:00:00,
2013-01-18 03:05:00,31.8,26.9,30.66,SSE,165,0.0,0.0,82,0.00,,,0.00,Wunderground v.1.15,2013-01-18 09:05:00,
2013-01-18 03:10:00,32.3,27.1,30.65,SSE,165,0.0,0.0,81,0.00,,,0.00,Wunderground v.1.15,2013-01-18 09:10:00,
2013-01-18 03:15:00,32.4,26.9,30.65,SSE,165,0.0,0.0,80,0.00,,,0.00,Wunderground v.1.15,2013-01-18 09:15:00,
2013-01-18 03:20:00,32.6,27.1,30.65,North,-999,0.0,0.0,80,0.00,,,-99.99,WeatherLink 6.0.2,2013-01-18 09:20:00,
2013-01-18 03:24:00,32.9,27.4,30.65,SSE,164,0.0,0.0,80,0.00,,,0.00,Wunderground v.1.15,2013-01-18 09:24:00,
2013-01-18 03:30:00,33.5,27.7,30.64,SSE,165,0.0,0.0,79,0.00,,,0.00,Wunderground v.1.15,2013-01-18 09:30:00,
2013-01-18 03:35:00,33.7,27.6,30.64,SSE,166,0.0,0.0,78,0.00,,,0.00,Wunderground v.1.15,2013-01-18 09:35:00,
2013-01-18 03:40:00,33.5,27.4,30.64,SSE,166,0.0,0.0,78,0.00,,,0.00,Wunderground v.1.15,2013-01-18 09:40:00,
2013-01-18 03:45:00,32.5,26.1,30.64,SSE,166,0.0,0.0,77,0.00,,,0.00,Wunderground v.1.15,2013-01-18 09:45:00,
2013-01-18 03:50:00,32.2,26.4,30.64,North,-999,0.0,0.0,79,0.00,,,-99.99,WeatherLink 6.0.2,2013-01-18 09:50:00,
2013-01-18 03:55:00,32.3,26.5,30.64,SSE,166,0.0,0.0,79,0.00,,,0.00,Wunderground v.1.15,2013-01-18 09:55:00,
2013-01-18 04:00:00,32.6,26.8,30.63,SSE,166,0.0,0.0,79,0.00,,,0.00,Wunderground v.1.15,2013-01-18 10:00:00,
2013-01-18 04:05:00,32.5,26.4,30.63,SSE,165,0.0,0.0,78,0.00,,,0.00,Wunderground v.1.15,2013-01-18 10:05:00,
2013-01-18 04:10:00,32.4,26.3,30.63,SSE,165,0.0,0.0,78,0.00,,,0.00,Wunderground v.1.15,2013-01-18 10:10:00,
2013-01-18 04:15:00,32.3,26.5,30.63,SSE,166,0.0,0.0,79,0.00,,,0.00,Wunderground v.1.15,2013-01-18 10:15:00,
2013-01-18 04:20:00,32.3,26.5,30.63,SSE,165,0.0,0.0,79,0.00,,,0.00,Wunderground v.1.15,2013-01-18 10:20:00,
2013-01-18 04:25:00,32.2,26.4,30.63,SSE,166,0.0,0.0,79,0.00,,,0.00,Wunderground v.1.15,2013-01-18 10:25:00,
2013-01-18 04:33:00,32.2,26.4,30.63,North,-999,0.0,0.0,79,0.00,,,-99.99,WeatherLink 6.0.2,2013-01-18 10:33:00,
2013-01-18 04:35:00,32.1,26.3,30.62,North,-999,0.0,0.0,79,0.00,,,-99.99,WeatherLink 6.0.2,2013-01-18 10:35:00,
2013-01-18 04:39:00,32.2,26.4,30.62,SSE,165,0.0,0.0,79,0.00,,,0.00,Wunderground v.1.15,2013-01-18 10:39:00,
2013-01-18 04:45:00,32.6,26.8,30.62,SSE,166,0.0,0.0,79,0.00,,,0.00,Wunderground v.1.15,2013-01-18 10:45:00,
2013-01-18 04:50:00,33.0,27.2,30.62,SSE,166,0.0,0.0,79,0.00,,,0.00,Wunderground v.1.15,2013-01-18 10:50:00,
2013-01-18 04:55:00,32.8,26.7,30.62,SSE,165,0.0,0.0,78,0.00,,,0.00,Wunderground v.1.15,2013-01-18 10:55:00,
2013-01-18 05:03:00,32.8,26.7,30.62,North,-999,0.0,0.0,78,0.00,,,-99.99,WeatherLink 6.0.2,2013-01-18 11:03:00,
2013-01-18 05:05:00,32.6,26.5,30.61,North,-999,0.0,0.0,78,0.00,,,-99.99,WeatherLink 6.0.2,2013-01-18 11:05:00,
2013-01-18 05:10:00,32.8,27.0,30.62,SSE,167,0.0,0.0,79,0.00,,,0.00,Wunderground v.1.15,2013-01-18 11:10:00,
2013-01-18 05:15:00,33.1,27.0,30.61,SSE,166,0.0,0.0,78,0.00,,,0.00,Wunderground v.1.15,2013-01-18 11:15:00,
2013-01-18 05:20:00,32.9,26.8,30.61,SSE,166,0.0,0.0,78,0.00,,,0.00,Wunderground v.1.15,2013-01-18 11:20:00,
2013-01-18 05:25:00,32.8,26.7,30.61,SSE,163,0.0,0.0,78,0.00,,,0.00,Wunderground v.1.15,2013-01-18 11:25:00,
2013-01-18 05:30:00,32.7,26.6,30.61,SSE,163,0.0,0.0,78,0.00,,,0.00,Wunderground v.1.15,2013-01-18 11:30:00,
2013-01-18 05:35:00,32.7,26.6,30.61,North,-999,0.0,0.0,78,0.00,,,-99.99,WeatherLink 6.0.2,2013-01-18 11:35:00,
2013-01-18 05:39:00,32.6,26.5,30.61,SSE,163,0.0,0.0,78,0.00,,,0.00,Wunderground v.1.15,2013-01-18 11:39:00,
2013-01-18 05:45:00,32.6,26.5,30.60,SSE,164,0.0,0.0,78,0.00,,,0.00,Wunderground v.1.15,2013-01-18 11:45:00,
2013-01-18 05:50:00,32.3,26.2,30.60,SSE,165,0.0,0.0,78,0.00,,,0.00,Wunderground v.1.15,2013-01-18 11:50:00,
2013-01-18 05:55:00,32.1,26.3,30.60,SSE,165,0.0,0.0,79,0.00,,,0.00,Wunderground v.1.15,2013-01-18 11:55:00,
2013-01-18 06:00:00,32.1,26.3,30.59,SSE,165,0.0,0.0,79,0.00,,,0.00,Wunderground v.1.15,2013-01-18 12:00:00,
2013-01-18 06:05:00,32.0,26.2,30.59,SSE,165,0.0,0.0,79,0.00,,,0.00,Wunderground v.1.15,2013-01-18 12:05:00,
2013-01-18 06:10:00,31.9,26.1,30.59,SSE,167,0.0,0.0,79,0.00,,,0.00,Wunderground v.1.15,2013-01-18 12:10:00,
2013-01-18 06:15:00,31.9,26.1,30.59,SSE,167,0.0,0.0,79,0.00,,,0.00,Wunderground v.1.15,2013-01-18 12:15:00,
2013-01-18 06:20:00,31.8,26.0,30.59,North,-999,0.0,0.0,79,0.00,,,-99.99,WeatherLink 6.0.2,2013-01-18 12:20:00,
2013-01-18 06:24:00,31.9,26.1,30.59,South,169,0.0,0.0,79,0.00,,,0.00,Wunderground v.1.15,2013-01-18 12:24:00,
2013-01-18 06:29:00,31.7,25.9,30.59,South,170,0.0,0.0,79,0.00,,,0.00,Wunderground v.1.15,2013-01-18 12:29:00,
2013-01-18 06:34:00,31.5,25.7,30.59,South,171,0.0,0.0,79,0.00,,,0.00,Wunderground v.1.15,2013-01-18 12:34:00,
2013-01-18 06:35:00,31.5,25.7,30.59,North,-999,0.0,0.0,79,0.00,,,-99.99,WeatherLink 6.0.2,2013-01-18 12:35:00,
2013-01-18 06:39:00,31.4,25.6,30.59,South,172,0.0,0.0,79,0.00,,,0.00,Wunderground v.1.15,2013-01-18 12:39:00,
2013-01-18 06:45:00,31.4,25.9,30.59,South,172,0.0,0.0,80,0.00,,,0.00,Wunderground v.1.15,2013-01-18 12:45:00,
2013-01-18 06:50:00,31.3,25.8,30.59,South,173,0.0,0.0,80,0.00,,,0.00,Wunderground v.1.15,2013-01-18 12:50:00,
2013-01-18 06:55:00,31.2,25.7,30.59,South,173,0.0,0.0,80,0.00,,,0.00,Wunderground v.1.15,2013-01-18 12:55:00,
2013-01-18 07:00:00,31.1,25.7,30.59,South,173,0.0,0.0,80,0.00,,,0.00,Wunderground v.1.15,2013-01-18 13:00:00,
2013-01-18 07:05:00,31.0,25.9,30.58,North,-999,0.0,0.0,81,0.00,,,-99.99,WeatherLink 6.0.2,2013-01-18 13:05:00,
2013-01-18 07:09:00,30.9,25.8,30.58,South,173,0.0,0.0,81,0.00,,,0.00,Wunderground v.1.15,2013-01-18 13:09:00,
2013-01-18 07:14:00,31.0,25.9,30.58,South,176,0.0,0.0,81,0.00,,,0.00,Wunderground v.1.15,2013-01-18 13:14:00,
2013-01-18 07:20:00,31.1,26.0,30.58,South,176,0.0,0.0,81,0.00,,,0.00,Wunderground v.1.15,2013-01-18 13:20:00,
2013-01-18 07:25:00,31.2,26.0,30.58,South,175,0.0,0.0,81,0.00,,,0.00,Wunderground v.1.15,2013-01-18 13:25:00,
2013-01-18 07:30:00,31.3,26.1,30.58,South,178,0.0,0.0,81,0.00,,,0.00,Wunderground v.1.15,2013-01-18 13:30:00,
2013-01-18 07:35:00,31.6,26.4,30.58,South,180,1.0,3.0,81,0.00,,,-99.99,WeatherLink 6.0.2,2013-01-18 13:35:00,
2013-01-18 07:39:00,31.9,26.7,30.58,South,180,1.0,1.0,81,0.00,,,0.00,Wunderground v.1.15,2013-01-18 13:39:00,
2013-01-18 07:45:00,32.0,26.5,30.58,South,176,1.0,1.0,80,0.00,,,0.00,Wunderground v.1.15,2013-01-18 13:45:00,
2013-01-18 07:50:00,32.1,26.6,30.58,South,180,1.0,3.0,80,0.00,,,-99.99,WeatherLink 6.0.2,2013-01-18 13:50:00,
2013-01-18 07:55:00,32.0,26.5,30.58,South,180,1.0,1.0,80,0.00,,,0.00,Wunderground v.1.15,2013-01-18 13:55:00,
2013-01-18 08:00:00,32.2,27.0,30.58,South,184,2.0,2.0,81,0.00,,,0.00,Wunderground v.1.15,2013-01-18 14:00:00,
2013-01-18 08:05:00,32.4,27.2,30.58,South,180,2.0,4.0,81,0.00,,,-99.99,WeatherLink 6.0.2,2013-01-18 14:05:00,
2013-01-18 08:09:00,32.6,27.4,30.58,South,183,3.0,3.0,81,0.00,,,0.00,Wunderground v.1.15,2013-01-18 14:09:00,
2013-01-18 08:14:00,33.0,27.8,30.59,South,188,4.0,4.0,81,0.00,,,0.00,Wunderground v.1.15,2013-01-18 14:14:00,
2013-01-18 08:19:00,33.5,28.0,30.58,South,188,5.0,5.0,80,0.00,,,0.00,Wunderground v.1.15,2013-01-18 14:19:00,
2013-01-18 08:20:00,33.5,28.0,30.58,South,180,5.0,10.0,80,0.00,,,-99.99,WeatherLink 6.0.2,2013-01-18 14:20:00,
2013-01-18 08:25:00,33.9,28.4,30.59,South,189,5.0,5.0,80,0.00,,,0.00,Wunderground v.1.15,2013-01-18 14:25:00,
2013-01-18 08:30:00,34.1,28.6,30.59,South,191,5.0,8.0,80,0.00,,,0.00,Wunderground v.1.15,2013-01-18 14:30:00,
2013-01-18 08:35:00,34.4,28.6,30.59,SSW,192,6.0,9.0,79,0.00,,,0.00,Wunderground v.1.15,2013-01-18 14:35:00,
2013-01-18 08:40:00,34.7,28.5,30.59,South,191,7.0,7.0,78,0.00,,,0.00,Wunderground v.1.15,2013-01-18 14:40:00,
2013-01-18 08:45:00,35.1,28.9,30.59,South,190,7.0,9.0,78,0.00,,,0.00,Wunderground v.1.15,2013-01-18 14:45:00,
2013-01-18 08:50:00,35.2,29.0,30.59,South,180,8.0,11.0,78,0.00,,,-99.99,WeatherLink 6.0.2,2013-01-18 14:50:00,
2013-01-18 08:54:00,35.4,29.2,30.59,SSW,192,7.0,9.0,78,0.00,,,0.00,Wunderground v.1.15,2013-01-18 14:54:00,
2013-01-18 08:59:00,35.7,29.5,30.59,South,191,7.0,8.0,78,0.00,,,0.00,Wunderground v.1.15,2013-01-18 14:59:00,
2013-01-18 09:05:00,36.1,29.6,30.59,South,188,8.0,8.0,77,0.00,,,0.00,Wunderground v.1.15,2013-01-18 15:05:00,
2013-01-18 09:10:00,36.5,29.7,30.59,SSW,193,9.0,9.0,76,0.00,,,0.00,Wunderground v.1.15,2013-01-18 15:10:00,
2013-01-18 09:15:00,37.0,30.1,30.59,South,180,10.0,10.0,76,0.00,,,0.00,Wunderground v.1.15,2013-01-18 15:15:00,
2013-01-18 09:20:00,37.6,31.0,30.59,South,180,9.0,14.0,77,0.00,,,-99.99,WeatherLink 6.0.2,2013-01-18 15:20:00,
2013-01-18 09:24:00,38.0,31.1,30.59,South,185,9.0,10.0,76,0.00,,,0.00,Wunderground v.1.15,2013-01-18 15:24:00,
2013-01-18 09:30:00,38.4,31.2,30.60,South,186,9.0,10.0,75,0.00,,,0.00,Wunderground v.1.15,2013-01-18 15:30:00,
2013-01-18 09:35:00,38.9,31.3,30.60,South,188,9.0,10.0,74,0.00,,,0.00,Wunderground v.1.15,2013-01-18 15:35:00,
2013-01-18 09:40:00,39.4,31.8,30.60,SSW,195,9.0,10.0,74,0.00,,,0.00,Wunderground v.1.15,2013-01-18 15:40:00,
2013-01-18 09:45:00,40.0,32.0,30.60,SSW,192,10.0,10.0,73,0.00,,,0.00,Wunderground v.1.15,2013-01-18 15:45:00,
2013-01-18 09:50:00,40.6,32.3,30.60,South,180,11.0,16.0,72,0.00,,,-99.99,WeatherLink 6.0.2,2013-01-18 15:50:00,
2013-01-18 09:54:00,41.1,32.4,30.60,South,187,10.0,13.0,71,0.00,,,0.00,Wunderground v.1.15,2013-01-18 15:54:00,
2013-01-18 09:59:00,41.8,32.7,30.60,SSW,192,10.0,10.0,70,0.00,,,0.00,Wunderground v.1.15,2013-01-18 15:59:00,
2013-01-18 10:05:00,42.5,33.0,30.60,SSW,202,10.0,11.0,69,0.00,,,0.00,Wunderground v.1.15,2013-01-18 16:05:00,
2013-01-18 10:10:00,43.0,33.2,30.60,South,190,10.0,12.0,68,0.00,,,0.00,Wunderground v.1.15,2013-01-18 16:10:00,
2013-01-18 10:15:00,43.4,32.8,30.60,SSW,200,11.0,12.0,66,0.00,,,0.00,Wunderground v.1.15,2013-01-18 16:15:00,
2013-01-18 10:20:00,44.0,33.0,30.59,SSW,202,12.0,19.0,65,0.00,,,-99.99,WeatherLink 6.0.2,2013-01-18 16:20:00,
2013-01-18 10:25:00,44.5,33.5,30.59,SSW,192,12.0,12.0,65,0.00,,,0.00,Wunderground v.1.15,2013-01-18 16:25:00,
2013-01-18 10:33:00,44.6,33.6,30.59,SSW,202,11.0,17.0,65,0.00,,,-99.99,WeatherLink 6.0.2,2013-01-18 16:33:00,
2013-01-18 10:35:00,45.2,32.9,30.59,SSW,202,13.0,18.0,62,0.00,,,-99.99,WeatherLink 6.0.2,2013-01-18 16:35:00,
2013-01-18 10:40:00,45.7,34.2,30.59,SSW,202,13.0,17.0,64,0.00,,,0.00,Wunderground v.1.15,2013-01-18 16:40:00,
2013-01-18 10:48:00,45.8,33.1,30.59,SSW,202,13.0,20.0,61,0.00,,,-99.99,WeatherLink 6.0.2,2013-01-18 16:48:00,
2013-01-18 10:50:00,46.3,32.7,30.58,SSW,202,14.0,21.0,59,0.00,,,-99.99,WeatherLink 6.0.2,2013-01-18 16:50:00,
2013-01-18 10:55:00,46.2,32.7,30.58,SSW,196,15.0,15.0,59,0.00,,,0.00,Wunderground v.1.15,2013-01-18 16:55:00,
2013-01-18 11:00:00,46.5,32.5,30.58,SSW,195,16.0,16.0,58,0.00,,,0.00,Wunderground v.1.15,2013-01-18 17:00:00,
2013-01-18 11:05:00,47.1,33.1,30.58,SSW,202,14.0,19.0,58,0.00,,,-99.99,WeatherLink 6.0.2,2013-01-18 17:05:00,
2013-01-18 11:09:00,47.4,32.9,30.58,SSW,212,14.0,16.0,57,0.00,,,0.00,Wunderground v.1.15,2013-01-18 17:09:00,
2013-01-18 11:14:00,47.7,34.1,30.57,SSW,209,13.0,16.0,59,0.00,,,0.00,Wunderground v.1.15,2013-01-18 17:14:00,
2013-01-18 11:19:00,48.3,33.3,30.57,SSW,200,12.0,12.0,56,0.00,,,0.00,Wunderground v.1.15,2013-01-18 17:19:00,
2013-01-18 11:20:00,48.3,33.3,30.57,SSW,202,13.0,18.0,56,0.00,,,-99.99,WeatherLink 6.0.2,2013-01-18 17:20:00,
2013-01-18 11:25:00,48.6,33.6,30.57,SSW,194,12.0,15.0,56,0.00,,,0.00,Wunderground v.1.15,2013-01-18 17:25:00,
2013-01-18 11:33:00,48.7,34.1,30.57,SSW,202,11.0,17.0,57,0.00,,,-99.99,WeatherLink 6.0.2,2013-01-18 17:33:00,
2013-01-18 11:35:00,49.3,33.8,30.55,SSW,202,15.0,23.0,55,0.00,,,-99.99,WeatherLink 6.0.2,2013-01-18 17:35:00,
2013-01-18 11:40:00,49.5,33.1,30.55,SSW,194,15.0,15.0,53,0.00,,,0.00,Wunderground v.1.15,2013-01-18 17:40:00,
2013-01-18 11:45:00,49.6,33.2,30.54,SSW,202,15.0,17.0,53,0.00,,,0.00,Wunderground v.1.15,2013-01-18 17:45:00,
2013-01-18 11:50:00,50.0,33.5,30.54,SSW,202,15.0,15.0,53,0.00,,,0.00,Wunderground v.1.15,2013-01-18 17:50:00,
2013-01-18 11:55:00,50.3,33.8,30.54,SSW,199,14.0,15.0,53,0.00,,,0.00,Wunderground v.1.15,2013-01-18 17:55:00,
2013-01-18 12:03:00,50.4,33.9,30.54,SSW,202,13.0,19.0,53,0.00,,,-99.99,WeatherLink 6.0.2,2013-01-18 18:03:00,
2013-01-18 12:05:00,50.7,33.2,30.52,SSW,202,14.0,20.0,51,0.00,,,-99.99,WeatherLink 6.0.2,2013-01-18 18:05:00,
2013-01-18 12:09:00,50.7,33.2,30.52,SW,217,14.0,14.0,51,0.00,,,0.00,Wunderground v.1.15,2013-01-18 18:09:00,
2013-01-18 12:14:00,51.1,32.1,30.52,SSW,192,12.0,15.0,48,0.00,,,0.00,Wunderground v.1.15,2013-01-18 18:14:00,
2013-01-18 12:20:00,51.2,32.2,30.52,SSW,202,12.0,14.0,48,0.00,,,0.00,Wunderground v.1.15,2013-01-18 18:20:00,
2013-01-18 12:25:00,51.2,33.7,30.51,SSW,208,13.0,14.0,51,0.00,,,0.00,Wunderground v.1.15,2013-01-18 18:25:00,
2013-01-18 12:30:00,51.3,32.8,30.51,SSW,195,13.0,13.0,49,0.00,,,0.00,Wunderground v.1.15,2013-01-18 18:30:00,
2013-01-18 12:35:00,51.4,32.9,30.50,SSW,200,13.0,13.0,49,0.00,,,0.00,Wunderground v.1.15,2013-01-18 18:35:00,
2013-01-18 12:44:00,51.9,33.8,30.50,SSW,206,12.0,14.0,50,0.00,,,0.00,Wunderground v.1.15,2013-01-18 18:44:00,
2013-01-18 12:49:00,52.4,33.8,30.49,SSW,211,11.0,12.0,49,0.00,,,0.00,Wunderground v.1.15,2013-01-18 18:49:00,
2013-01-18 12:50:00,52.4,32.7,30.49,SSW,202,11.0,15.0,47,0.00,,,-99.99,WeatherLink 6.0.2,2013-01-18 18:50:00,
2013-01-18 12:55:00,52.7,33.0,30.49,SSW,211,10.0,12.0,47,0.00,,,0.00,Wunderground v.1.15,2013-01-18 18:55:00,
2013-01-18 13:00:00,53.1,33.9,30.49,SSW,198,10.0,10.0,48,0.00,,,0.00,Wunderground v.1.15,2013-01-18 19:00:00,
2013-01-18 13:05:00,53.1,32.8,30.49,SSW,202,9.0,13.0,46,0.00,,,-99.99,WeatherLink 6.0.2,2013-01-18 19:05:00,
2013-01-18 13:09:00,52.9,33.2,30.49,SSW,212,9.0,10.0,47,0.00,,,0.00,Wunderground v.1.15,2013-01-18 19:09:00,
2013-01-18 13:15:00,53.4,33.1,30.48,SSW,198,10.0,10.0,46,0.00,,,0.00,Wunderground v.1.15,2013-01-18 19:15:00,
2013-01-18 13:20:00,53.4,32.6,30.48,SSW,202,11.0,16.0,45,0.00,,,-99.99,WeatherLink 6.0.2,2013-01-18 19:20:00,
2013-01-18 13:25:00,53.4,32.0,30.48,SSW,199,11.0,11.0,44,0.00,,,0.00,Wunderground v.1.15,2013-01-18 19:25:00,
2013-01-18 13:33:00,53.5,32.1,30.48,SSW,202,11.0,17.0,44,0.00,,,-99.99,WeatherLink 6.0.2,2013-01-18 19:33:00,
2013-01-18 13:35:00,54.2,32.7,30.47,SSW,202,9.0,14.0,44,0.00,,,-99.99,WeatherLink 6.0.2,2013-01-18 19:35:00,
2013-01-18 13:40:00,54.2,31.6,30.47,SSW,206,9.0,12.0,42,0.00,,,0.00,Wunderground v.1.15,2013-01-18 19:40:00,
2013-01-18 13:45:00,53.9,30.1,30.47,SSW,203,10.0,14.0,40,0.00,,,0.00,Wunderground v.1.15,2013-01-18 19:45:00,
2013-01-18 13:50:00,54.2,31.0,30.46,SSW,202,11.0,15.0,41,0.00,,,-99.99,WeatherLink 6.0.2,2013-01-18 19:50:00,
2013-01-18 13:54:00,54.2,31.0,30.47,SSW,209,11.0,15.0,41,0.00,,,0.00,Wunderground v.1.15,2013-01-18 19:54:00,
2013-01-18 13:59:00,54.3,31.1,30.47,SSW,206,11.0,12.0,41,0.00,,,0.00,Wunderground v.1.15,2013-01-18 19:59:00,
2013-01-18 14:04:00,54.4,31.2,30.46,SSW,197,10.0,12.0,41,0.00,,,0.00,Wunderground v.1.15,2013-01-18 20:04:00,
2013-01-18 14:05:00,54.4,31.8,30.46,SSW,202,10.0,15.0,42,0.00,,,-99.99,WeatherLink 6.0.2,2013-01-18 20:05:00,
2013-01-18 14:14:00,54.5,30.6,30.45,South,184,12.0,13.0,40,0.00,,,0.00,Wunderground v.1.15,2013-01-18 20:14:00,
2013-01-18 14:20:00,54.6,31.3,30.45,SSW,192,13.0,13.0,41,0.00,,,0.00,Wunderground v.1.15,2013-01-18 20:20:00,
2013-01-18 14:25:00,54.8,30.9,30.45,SSW,205,11.0,13.0,40,0.00,,,0.00,Wunderground v.1.15,2013-01-18 20:25:00,
2013-01-18 14:30:00,55.1,31.8,30.45,SSW,197,9.0,9.0,41,0.00,,,0.00,Wunderground v.1.15,2013-01-18 20:30:00,
2013-01-18 14:35:00,54.7,30.8,30.44,SSW,202,13.0,18.0,40,0.00,,,-99.99,WeatherLink 6.0.2,2013-01-18 20:35:00,
2013-01-18 14:39:00,54.8,30.9,30.44,SSW,196,12.0,12.0,40,0.00,,,0.00,Wunderground v.1.15,2013-01-18 20:39:00,
2013-01-18 14:45:00,54.4,30.6,30.44,SSW,194,13.0,14.0,40,0.00,,,0.00,Wunderground v.1.15,2013-01-18 20:45:00,
2013-01-18 14:50:00,54.6,30.7,30.43,SSW,205,13.0,13.0,40,0.00,,,0.00,Wunderground v.1.15,2013-01-18 20:50:00,
2013-01-18 14:55:00,54.6,31.3,30.43,South,186,12.0,13.0,41,0.00,,,0.00,Wunderground v.1.15,2013-01-18 20:55:00,
2013-01-18 15:03:00,54.6,31.3,30.43,SSW,202,12.0,16.0,41,0.00,,,-99.99,WeatherLink 6.0.2,2013-01-18 21:03:00,
2013-01-18 15:05:00,54.5,31.3,30.43,SSW,202,12.0,18.0,41,0.00,,,-99.99,WeatherLink 6.0.2,2013-01-18 21:05:00,
2013-01-18 15:09:00,54.4,31.2,30.43,South,189,12.0,17.0,41,0.00,,,0.00,Wunderground v.1.15,2013-01-18 21:09:00,
2013-01-18 15:14:00,53.9,30.1,30.43,SSW,194,13.0,17.0,40,0.00,,,0.00,Wunderground v.1.15,2013-01-18 21:14:00,
2013-01-18 15:19:00,54.0,30.8,30.43,SSW,196,13.0,13.0,41,0.00,,,0.00,Wunderground v.1.15,2013-01-18 21:19:00,
2013-01-18 15:20:00,54.1,30.9,30.43,South,180,12.0,17.0,41,0.00,,,-99.99,WeatherLink 6.0.2,2013-01-18 21:20:00,
2013-01-18 15:25:00,54.2,31.0,30.43,SSW,203,12.0,13.0,41,0.00,,,0.00,Wunderground v.1.15,2013-01-18 21:25:00,
2013-01-18 15:30:00,53.9,30.7,30.43,SW,215,12.0,12.0,41,0.00,,,0.00,Wunderground v.1.15,2013-01-18 21:30:00,
2013-01-18 15:35:00,53.7,29.9,30.42,SSW,202,13.0,14.0,40,0.00,,,0.00,Wunderground v.1.15,2013-01-18 21:35:00,
2013-01-18 15:40:00,53.7,30.5,30.43,South,188,12.0,12.0,41,0.00,,,0.00,Wunderground v.1.15,2013-01-18 21:40:00,
2013-01-18 15:45:00,53.8,31.2,30.42,SSW,202,10.0,15.0,42,0.00,,,-99.99,WeatherLink 6.0.2,2013-01-18 21:45:00,
2013-01-18 15:50:00,53.3,30.8,30.42,SSW,202,13.0,18.0,42,0.00,,,-99.99,WeatherLink 6.0.2,2013-01-18 21:50:00,
2013-01-18 15:55:00,53.2,31.3,30.42,SSW,202,12.0,16.0,43,0.00,,,-99.99,WeatherLink 6.0.2,2013-01-18 21:55:00,
2013-01-18 16:00:00,52.9,30.4,30.42,South,180,15.0,20.0,42,0.00,,,-99.99,WeatherLink 6.0.2,2013-01-18 22:00:00,
2013-01-18 16:05:00,52.7,30.8,30.42,SSW,202,14.0,19.0,43,0.00,,,-99.99,WeatherLink 6.0.2,2013-01-18 22:05:00,
2013-01-18 16:10:00,52.7,30.8,30.42,SSW,202,11.0,17.0,43,0.00,,,-99.99,WeatherLink 6.0.2,2013-01-18 22:10:00,
2013-01-18 16:15:00,52.6,31.3,30.42,SSW,202,12.0,18.0,44,0.00,,,-99.99,WeatherLink 6.0.2,2013-01-18 22:15:00,
2013-01-18 16:20:00,52.6,30.7,30.41,SSW,202,12.0,18.0,43,0.00,,,-99.99,WeatherLink 6.0.2,2013-01-18 22:20:00,
2013-01-18 16:25:00,52.4,30.5,30.41,SSW,202,12.0,18.0,43,0.00,,,-99.99,WeatherLink 6.0.2,2013-01-18 22:25:00,
2013-01-18 16:30:00,52.3,30.4,30.41,SSW,202,13.0,18.0,43,0.00,,,-99.99,WeatherLink 6.0.2,2013-01-18 22:30:00,
2013-01-18 16:35:00,52.2,30.9,30.41,SSW,202,12.0,19.0,44,0.00,,,-99.99,WeatherLink 6.0.2,2013-01-18 22:35:00,
2013-01-18 16:40:00,51.9,31.2,30.41,SSW,202,11.0,15.0,45,0.00,,,-99.99,WeatherLink 6.0.2,2013-01-18 22:40:00,
2013-01-18 16:45:00,51.8,31.1,30.41,SSW,202,10.0,14.0,45,0.00,,,-99.99,WeatherLink 6.0.2,2013-01-18 22:45:00,
2013-01-18 16:50:00,51.5,30.8,30.41,SSW,202,9.0,15.0,45,0.00,,,-99.99,WeatherLink 6.0.2,2013-01-18 22:50:00,
2013-01-18 16:55:00,51.3,31.7,30.41,South,180,9.0,13.0,47,0.00,,,-99.99,WeatherLink 6.0.2,2013-01-18 22:55:00,
2013-01-18 17:00:00,50.9,31.4,30.41,South,180,9.0,12.0,47,0.00,,,-99.99,WeatherLink 6.0.2,2013-01-18 23:00:00,
2013-01-18 17:05:00,50.3,31.3,30.41,South,180,9.0,12.0,48,0.00,,,-99.99,WeatherLink 6.0.2,2013-01-18 23:05:00,
2013-01-18 17:10:00,49.7,31.8,30.40,South,180,8.0,14.0,50,0.00,,,-99.99,WeatherLink 6.0.2,2013-01-18 23:10:00,
2013-01-18 17:15:00,49.7,31.3,30.41,South,180,9.0,12.0,49,0.00,,,-99.99,WeatherLink 6.0.2,2013-01-18 23:15:00,
2013-01-18 17:25:00,48.9,31.1,30.41,South,180,10.0,13.0,50,0.00,,,-99.99,WeatherLink 6.0.2,2013-01-18 23:25:00,
2013-01-18 17:30:00,48.6,30.8,30.41,South,180,9.0,12.0,50,0.00,,,-99.99,WeatherLink 6.0.2,2013-01-18 23:30:00,
2013-01-18 17:35:00,48.1,30.8,30.40,South,180,8.0,10.0,51,0.00,,,-99.99,WeatherLink 6.0.2,2013-01-18 23:35:00,
2013-01-18 17:40:00,47.9,31.1,30.40,South,180,6.0,9.0,52,0.00,,,-99.99,WeatherLink 6.0.2,2013-01-18 23:40:00,
2013-01-18 17:45:00,47.3,30.5,30.40,South,180,5.0,9.0,52,0.00,,,-99.99,WeatherLink 6.0.2,2013-01-18 23:45:00,
2013-01-18 17:50:00,46.7,30.5,30.40,South,180,5.0,8.0,53,0.00,,,-99.99,WeatherLink 6.0.2,2013-01-18 23:50:00,
2013-01-18 17:55:00,46.5,30.7,30.40,South,180,5.0,8.0,54,0.00,,,-99.99,WeatherLink 6.0.2,2013-01-18 23:55:00,
2013-01-18 18:10:00,46.1,30.8,30.39,South,180,5.0,8.0,55,0.00,,,-99.99,WeatherLink 6.0.2,2013-01-19 00:10:00,
2013-01-18 18:20:00,45.1,30.8,30.39,South,180,4.0,6.0,57,0.00,,,-99.99,WeatherLink 6.0.2,2013-01-19 00:20:00,
2013-01-18 18:25:00,45.1,30.8,30.39,South,180,4.0,7.0,57,0.00,,,-99.99,WeatherLink 6.0.2,2013-01-19 00:25:00,
2013-01-18 18:30:00,45.2,30.9,30.39,South,180,4.0,7.0,57,0.00,,,-99.99,WeatherLink 6.0.2,2013-01-19 00:30:00,
2013-01-18 18:35:00,45.1,30.8,30.39,South,180,4.0,7.0,57,0.00,,,-99.99,WeatherLink 6.0.2,2013-01-19 00:35:00,
2013-01-18 18:40:00,45.2,30.4,30.39,South,180,3.0,6.0,56,0.00,,,-99.99,WeatherLink 6.0.2,2013-01-19 00:40:00,
2013-01-18 18:45:00,45.0,30.2,30.39,South,180,3.0,6.0,56,0.00,,,-99.99,WeatherLink 6.0.2,2013-01-19 00:45:00,
2013-01-18 18:50:00,44.7,30.4,30.38,South,180,3.0,6.0,57,0.00,,,-99.99,WeatherLink 6.0.2,2013-01-19 00:50:00,
2013-01-18 18:55:00,44.5,30.2,30.39,South,180,3.0,6.0,57,0.00,,,-99.99,WeatherLink 6.0.2,2013-01-19 00:55:00,
2013-01-18 19:00:00,44.3,30.0,30.39,South,180,2.0,5.0,57,0.00,,,-99.99,WeatherLink 6.0.2,2013-01-19 01:00:00,
2013-01-18 19:05:00,43.8,30.0,30.39,South,180,3.0,5.0,58,0.00,,,-99.99,WeatherLink 6.0.2,2013-01-19 01:05:00,
2013-01-18 19:10:00,43.2,29.4,30.39,South,180,4.0,7.0,58,0.00,,,-99.99,WeatherLink 6.0.2,2013-01-19 01:10:00,
2013-01-18 19:15:00,42.8,29.0,30.39,South,180,3.0,5.0,58,0.00,,,-99.99,WeatherLink 6.0.2,2013-01-19 01:15:00,
2013-01-18 19:20:00,43.1,29.3,30.39,South,180,2.0,4.0,58,0.00,,,-99.99,WeatherLink 6.0.2,2013-01-19 01:20:00,
2013-01-18 19:25:00,43.2,29.0,30.39,South,180,2.0,5.0,57,0.00,,,-99.99,WeatherLink 6.0.2,2013-01-19 01:25:00,
2013-01-18 19:30:00,43.1,28.9,30.39,South,180,3.0,5.0,57,0.00,,,-99.99,WeatherLink 6.0.2,2013-01-19 01:30:00,
2013-01-18 19:35:00,42.8,29.0,30.39,South,180,2.0,5.0,58,0.00,,,-99.99,WeatherLink 6.0.2,2013-01-19 01:35:00,
2013-01-18 19:40:00,42.8,29.0,30.39,South,180,3.0,5.0,58,0.00,,,-99.99,WeatherLink 6.0.2,2013-01-19 01:40:00,
2013-01-18 19:45:00,42.7,28.9,30.39,South,180,4.0,6.0,58,0.00,,,-99.99,WeatherLink 6.0.2,2013-01-19 01:45:00,
2013-01-18 19:50:00,42.8,29.0,30.39,South,180,4.0,6.0,58,0.00,,,-99.99,WeatherLink 6.0.2,2013-01-19 01:50:00,
2013-01-18 19:55:00,42.7,28.9,30.39,South,180,4.0,7.0,58,0.00,,,-99.99,WeatherLink 6.0.2,2013-01-19 01:55:00,
2013-01-18 20:00:00,42.5,29.2,30.38,South,180,4.0,7.0,59,0.00,,,-99.99,WeatherLink 6.0.2,2013-01-19 02:00:00,
2013-01-18 20:05:00,42.8,29.5,30.38,South,180,5.0,9.0,59,0.00,,,-99.99,WeatherLink 6.0.2,2013-01-19 02:05:00,
2013-01-18 20:10:00,43.0,29.2,30.38,South,180,5.0,9.0,58,0.00,,,-99.99,WeatherLink 6.0.2,2013-01-19 02:10:00,
2013-01-18 20:15:00,42.9,29.5,30.37,South,180,5.0,9.0,59,0.00,,,-99.99,WeatherLink 6.0.2,2013-01-19 02:15:00,
2013-01-18 20:20:00,42.9,29.5,30.37,South,180,5.0,9.0,59,0.00,,,-99.99,WeatherLink 6.0.2,2013-01-19 02:20:00,
2013-01-18 20:25:00,43.3,29.5,30.37,South,180,6.0,10.0,58,0.00,,,-99.99,WeatherLink 6.0.2,2013-01-19 02:25:00,
2013-01-18 20:30:00,43.1,29.7,30.37,South,180,5.0,8.0,59,0.00,,,-99.99,WeatherLink 6.0.2,2013-01-19 02:30:00,
2013-01-18 20:35:00,43.2,29.4,30.37,South,180,6.0,9.0,58,0.00,,,-99.99,WeatherLink 6.0.2,2013-01-19 02:35:00,
2013-01-18 20:40:00,43.5,29.7,30.37,South,180,6.0,13.0,58,0.00,,,-99.99,WeatherLink 6.0.2,2013-01-19 02:40:00,
2013-01-18 20:45:00,43.6,29.8,30.37,South,180,7.0,12.0,58,0.00,,,-99.99,WeatherLink 6.0.2,2013-01-19 02:45:00,
2013-01-18 20:50:00,43.7,29.5,30.37,South,180,7.0,10.0,57,0.00,,,-99.99,WeatherLink 6.0.2,2013-01-19 02:50:00,
2013-01-18 20:55:00,43.7,29.5,30.37,South,180,6.0,9.0,57,0.00,,,-99.99,WeatherLink 6.0.2,2013-01-19 02:55:00,
2013-01-18 21:00:00,43.5,29.3,30.37,South,180,7.0,10.0,57,0.00,,,-99.99,WeatherLink 6.0.2,2013-01-19 03:00:00,
2013-01-18 21:05:00,43.8,29.5,30.37,South,180,9.0,12.0,57,0.00,,,-99.99,WeatherLink 6.0.2,2013-01-19 03:05:00,
2013-01-18 21:10:00,44.3,29.6,30.37,South,180,10.0,15.0,56,0.00,,,-99.99,WeatherLink 6.0.2,2013-01-19 03:10:00,
2013-01-18 21:15:00,44.3,29.6,30.37,SSW,202,9.0,14.0,56,0.00,,,-99.99,WeatherLink 6.0.2,2013-01-19 03:15:00,
2013-01-18 21:20:00,44.4,29.7,30.37,South,180,9.0,12.0,56,0.00,,,-99.99,WeatherLink 6.0.2,2013-01-19 03:20:00,
2013-01-18 21:25:00,44.6,29.9,30.37,SSW,202,9.0,13.0,56,0.00,,,-99.99,WeatherLink 6.0.2,2013-01-19 03:25:00,
2013-01-18 21:30:00,44.6,29.9,30.36,SSW,202,9.0,12.0,56,0.00,,,-99.99,WeatherLink 6.0.2,2013-01-19 03:30:00,
2013-01-18 21:35:00,44.4,30.1,30.36,SSW,202,9.0,14.0,57,0.00,,,-99.99,WeatherLink 6.0.2,2013-01-19 03:35:00,
2013-01-18 21:40:00,44.3,30.0,30.36,SSW,202,9.0,12.0,57,0.00,,,-99.99,WeatherLink 6.0.2,2013-01-19 03:40:00,
2013-01-18 21:45:00,44.2,29.9,30.37,SSW,202,8.0,11.0,57,0.00,,,-99.99,WeatherLink 6.0.2,2013-01-19 03:45:00,
2013-01-18 21:50:00,44.0,30.2,30.37,SSW,202,8.0,11.0,58,0.00,,,-99.99,WeatherLink 6.0.2,2013-01-19 03:50:00,
2013-01-18 21:55:00,43.8,30.0,30.37,SSW,202,8.0,11.0,58,0.00,,,-99.99,WeatherLink 6.0.2,2013-01-19 03:55:00,
2013-01-18 22:00:00,43.7,30.3,30.36,SSW,202,10.0,13.0,59,0.00,,,-99.99,WeatherLink 6.0.2,2013-01-19 04:00:00,
2013-01-18 22:05:00,43.7,30.3,30.36,SSW,202,10.0,14.0,59,0.00,,,-99.99,WeatherLink 6.0.2,2013-01-19 04:05:00,
2013-01-18 22:10:00,43.8,30.4,30.36,SSW,202,9.0,14.0,59,0.00,,,-99.99,WeatherLink 6.0.2,2013-01-19 04:10:00,
2013-01-18 22:15:00,43.6,30.2,30.36,SSW,202,8.0,12.0,59,0.00,,,-99.99,WeatherLink 6.0.2,2013-01-19 04:15:00,
2013-01-18 22:20:00,43.6,30.6,30.35,SSW,202,9.0,14.0,60,0.00,,,-99.99,WeatherLink 6.0.2,2013-01-19 04:20:00,
2013-01-18 22:30:00,44.2,30.8,30.35,SSW,202,11.0,15.0,59,0.00,,,-99.99,WeatherLink 6.0.2,2013-01-19 04:30:00,
2013-01-18 22:35:00,44.2,30.8,30.35,SSW,202,10.0,14.0,59,0.00,,,-99.99,WeatherLink 6.0.2,2013-01-19 04:35:00,
2013-01-18 22:40:00,44.2,30.8,30.35,SSW,202,9.0,15.0,59,0.00,,,-99.99,WeatherLink 6.0.2,2013-01-19 04:40:00,
2013-01-18 22:45:00,44.0,30.6,30.35,SSW,202,9.0,12.0,59,0.00,,,-99.99,WeatherLink 6.0.2,2013-01-19 04:45:00,
2013-01-18 22:50:00,43.9,30.9,30.35,SSW,202,9.0,12.0,60,0.00,,,-99.99,WeatherLink 6.0.2,2013-01-19 04:50:00,
2013-01-18 22:55:00,43.6,30.6,30.35,SSW,202,8.0,12.0,60,0.00,,,-99.99,WeatherLink 6.0.2,2013-01-19 04:55:00,
2013-01-18 23:00:00,43.6,30.6,30.35,SSW,202,9.0,13.0,60,0.00,,,-99.99,WeatherLink 6.0.2,2013-01-19 05:00:00,
2013-01-18 23:05:00,43.4,30.4,30.35,SSW,202,8.0,12.0,60,0.00,,,-99.99,WeatherLink 6.0.2,2013-01-19 05:05:00,
2013-01-18 23:10:00,43.0,30.5,30.35,SSW,202,7.0,11.0,61,0.00,,,-99.99,WeatherLink 6.0.2,2013-01-19 05:10:00,
2013-01-18 23:15:00,42.5,30.4,30.35,SSW,202,7.0,9.0,62,0.00,,,-99.99,WeatherLink 6.0.2,2013-01-19 05:15:00,
2013-01-18 23:20:00,42.4,30.3,30.35,SSW,202,7.0,12.0,62,0.00,,,-99.99,WeatherLink 6.0.2,2013-01-19 05:20:00,
2013-01-18 23:25:00,42.2,30.1,30.35,SSW,202,7.0,9.0,62,0.00,,,-99.99,WeatherLink 6.0.2,2013-01-19 05:25:00,
2013-01-18 23:30:00,41.8,30.1,30.35,SSW,202,7.0,8.0,63,0.00,,,-99.99,WeatherLink 6.0.2,2013-01-19 05:30:00,
2013-01-18 23:35:00,41.6,30.3,30.35,SSW,202,7.0,8.0,64,0.00,,,-99.99,WeatherLink 6.0.2,2013-01-19 05:35:00,
2013-01-18 23:40:00,41.7,30.4,30.34,SSW,202,7.0,10.0,64,0.00,,,-99.99,WeatherLink 6.0.2,2013-01-19 05:40:00,
2013-01-18 23:45:00,41.9,30.2,30.35,SSW,202,7.0,10.0,63,0.00,,,-99.99,WeatherLink 6.0.2,2013-01-19 05:45:00,
2013-01-18 23:50:00,42.0,30.3,30.34,SSW,202,8.0,12.0,63,0.00,,,-99.99,WeatherLink 6.0.2,2013-01-19 05:50:00,
2013-01-18 23:55:00,41.9,30.2,30.34,SSW,202,9.0,13.0,63,0.00,,,-99.99,WeatherLink 6.0.2,2013-01-19 05:55:00,